• In Russia
  • List of Countries
  • For 7 days
  • Water Temperature
  • Satellite Maps
  • Weather Map
  • Weather Widgets
  • user-avatar
    Login

    Hourly Weather Igls

    Today, 18 July, Wednesday

    Time Temperature Precipitation Wind Pressure Humidity
    00:00 +13°C° 0 mm 2 mps 685 mmHg 79%
    01:00 +14°C° 0 mm 2 mps 685 mmHg 79%
    02:00 +13°C° 0 mm 2 mps 685 mmHg 80%
    03:00 +13°C° 0 mm 2 mps 685 mmHg 81%
    04:00 +13°C° 0 mm 2 mps 685 mmHg 82%
    05:00 +15°C° 0 mm 2 mps 686 mmHg 78%
    06:00 +16°C° 0 mm 2 mps 686 mmHg 75%
    07:00 +19°C° 0 mm 2 mps 687 mmHg 71%
    08:00 +20°C° 0.1 mm 2 mps 687 mmHg 65%
    09:00 +23°C° 0.1 mm 2 mps 687 mmHg 58%
    10:00 +24°C° 0.1 mm 2 mps 687 mmHg 52%
    11:00 +25°C° 0 mm 2 mps 687 mmHg 49%
    12:00 +26°C° 0 mm 2 mps 687 mmHg 45%
    13:00 +27°C° 0 mm 2 mps 687 mmHg 42%
    14:00 +26°C° 0 mm 2 mps 687 mmHg 44%
    15:00 +26°C° 0 mm 3 mps 687 mmHg 46%
    16:00 +26°C° 0 mm 3 mps 686 mmHg 48%
    17:00 +24°C° 0.1 mm 2 mps 686 mmHg 57%
    18:00 +23°C° 0.1 mm 2 mps 686 mmHg 66%
    19:00 +21°C° 0.1 mm 2 mps 686 mmHg 75%
    20:00 +19°C° 0 mm 2 mps 686 mmHg 81%
    21:00 +18°C° 0 mm 1 mps 686 mmHg 87%
    22:00 +15°C° 0 mm 1 mps 686 mmHg 93%
    23:00 +15°C° 0 mm 1 mps 686 mmHg 94%

    Tomorrow, 19 July, Thursday

    Time Temperature Precipitation Wind Pressure Humidity
    00:00 +14°C° 0 mm 1 mps 686 mmHg 94%
    01:00 +14°C° 0 mm 1 mps 686 mmHg 95%
    02:00 +13°C° 0 mm 1 mps 686 mmHg 94%
    03:00 +13°C° 0 mm 1 mps 686 mmHg 94%
    04:00 +12°C° 0 mm 1 mps 685 mmHg 94%
    05:00 +14°C° 0 mm 1 mps 686 mmHg 87%
    06:00 +16°C° 0 mm 1 mps 686 mmHg 79%
    07:00 +19°C° 0 mm 1 mps 686 mmHg 72%
    08:00 +21°C° 0 mm 1 mps 687 mmHg 63%
    09:00 +23°C° 0 mm 1 mps 687 mmHg 54%
    10:00 +25°C° 0 mm 2 mps 687 mmHg 45%
    11:00 +26°C° 0 mm 2 mps 687 mmHg 43%
    12:00 +26°C° 0 mm 2 mps 687 mmHg 40%
    13:00 +27°C° 0 mm 2 mps 687 mmHg 38%
    14:00 +27°C° 0 mm 2 mps 687 mmHg 40%
    15:00 +27°C° 0 mm 2 mps 687 mmHg 42%
    16:00 +27°C° 0 mm 2 mps 687 mmHg 44%
    17:00 +25°C° 0 mm 2 mps 687 mmHg 52%
    18:00 +24°C° 0 mm 2 mps 686 mmHg 61%
    19:00 +21°C° 0 mm 2 mps 686 mmHg 70%
    20:00 +20°C° 0 mm 1 mps 686 mmHg 77%
    21:00 +18°C° 0 mm 1 mps 686 mmHg 84%
    22:00 +15°C° 0 mm 1 mps 686 mmHg 91%
    23:00 +15°C° 0 mm 1 mps 686 mmHg 91%

    Day after tomorrow, 20 July, Friday

    Time Temperature Precipitation Wind Pressure Humidity
    00:00 +14°C° 0 mm 1 mps 686 mmHg 91%
    01:00 +14°C° 0 mm 1 mps 686 mmHg 92%
    02:00 +14°C° 0 mm 1 mps 685 mmHg 91%
    03:00 +14°C° 0 mm 1 mps 685 mmHg 91%
    04:00 +14°C° 0 mm 1 mps 685 mmHg 90%
    05:00 +16°C° 0 mm 1 mps 685 mmHg 84%
    06:00 +19°C° 0 mm 1 mps 686 mmHg 77%
    07:00 +19°C° 0 mm 0 mps 686 mmHg 71%
    08:00 +23°C° 0 mm 1 mps 686 mmHg 63%
    09:00 +25°C° 0 mm 1 mps 686 mmHg 55%
    10:00 +27°C° 0 mm 1 mps 687 mmHg 47%
    11:00 +27°C° 0.2 mm 1 mps 686 mmHg 45%
    12:00 +28°C° 0.2 mm 1 mps 686 mmHg 44%
    13:00 +28°C° 0.2 mm 1 mps 686 mmHg 42%
    14:00 +28°C° 0.8 mm 1 mps 686 mmHg 48%
    15:00 +27°C° 0.8 mm 1 mps 685 mmHg 53%
    16:00 +26°C° 0.8 mm 1 mps 685 mmHg 59%
    17:00 +24°C° 1.5 mm 1 mps 685 mmHg 68%
    18:00 +23°C° 1.5 mm 1 mps 684 mmHg 77%
    19:00 +21°C° 1.5 mm 1 mps 684 mmHg 86%
    20:00 +20°C° 0.3 mm 1 mps 684 mmHg 87%
    21:00 +18°C° 0.3 mm 2 mps 684 mmHg 88%
    22:00 +17°C° 0.3 mm 2 mps 684 mmHg 89%
    23:00 +17°C° 0.7 mm 2 mps 684 mmHg 90%

    21 July, Saturday

    Time Temperature Precipitation Wind Pressure Humidity
    00:00 +17°C° 0.7 mm 2 mps 683 mmHg 91%
    01:00 +18°C° 0.7 mm 1 mps 683 mmHg 92%
    02:00 +18°C° 0.5 mm 1 mps 683 mmHg 92%
    03:00 +16°C° 0.5 mm 1 mps 683 mmHg 92%
    04:00 +16°C° 0.5 mm 1 mps 683 mmHg 92%
    05:00 +18°C° 0.8 mm 1 mps 683 mmHg 92%
    06:00 +18°C° 0.8 mm 1 mps 683 mmHg 92%
    07:00 +18°C° 0.8 mm 1 mps 683 mmHg 92%
    08:00 +19°C° 1 mm 1 mps 683 mmHg 91%
    09:00 +19°C° 1 mm 1 mps 683 mmHg 90%
    10:00 +19°C° 1 mm 1 mps 683 mmHg 88%
    11:00 +20°C° 0.8 mm 1 mps 683 mmHg 84%
    12:00 +20°C° 0.8 mm 1 mps 683 mmHg 81%
    13:00 +21°C° 0.8 mm 1 mps 683 mmHg 77%
    14:00 +20°C° 0.5 mm 2 mps 683 mmHg 77%
    15:00 +20°C° 0.5 mm 2 mps 683 mmHg 77%
    16:00 +20°C° 0.5 mm 2 mps 683 mmHg 77%
    17:00 +19°C° 0.5 mm 2 mps 683 mmHg 81%
    18:00 +19°C° 0.5 mm 1 mps 683 mmHg 85%
    19:00 +18°C° 0.5 mm 1 mps 683 mmHg 90%
    20:00 +18°C° 0.4 mm 1 mps 683 mmHg 91%
    21:00 +16°C° 0.4 mm 2 mps 683 mmHg 93%
    22:00 +15°C° 0.4 mm 2 mps 683 mmHg 95%
    23:00 +15°C° 0.2 mm 2 mps 683 mmHg 95%

    22 July, Sunday

    Time Temperature Precipitation Wind Pressure Humidity
    00:00 +15°C° 0.2 mm 2 mps 683 mmHg 95%
    01:00 +14°C° 0.2 mm 2 mps 683 mmHg 95%
    02:00 +14°C° 0.2 mm 2 mps 683 mmHg 95%
    03:00 +14°C° 0.2 mm 2 mps 683 mmHg 95%
    04:00 +14°C° 0.2 mm 2 mps 683 mmHg 95%
    05:00 +14°C° 0.1 mm 2 mps 683 mmHg 94%
    06:00 +15°C° 0.1 mm 2 mps 683 mmHg 92%
    07:00 +16°C° 0.1 mm 2 mps 683 mmHg 90%
    08:00 +16°C° 0.3 mm 2 mps 683 mmHg 85%
    09:00 +17°C° 0.3 mm 2 mps 683 mmHg 80%
    10:00 +18°C° 0.3 mm 2 mps 683 mmHg 75%
    11:00 +19°C° 0.5 mm 2 mps 684 mmHg 74%
    12:00 +20°C° 0.5 mm 3 mps 684 mmHg 72%
    13:00 +21°C° 0.5 mm 3 mps 684 mmHg 70%
    14:00 +20°C° 0.7 mm 3 mps 684 mmHg 72%
    15:00 +20°C° 0.7 mm 3 mps 684 mmHg 73%
    16:00 +20°C° 0.7 mm 3 mps 684 mmHg 75%
    17:00 +19°C° 0.4 mm 3 mps 684 mmHg 78%
    18:00 +18°C° 0.4 mm 2 mps 684 mmHg 81%
    19:00 +17°C° 0.4 mm 2 mps 684 mmHg 85%
    20:00 +16°C° 0.1 mm 2 mps 684 mmHg 88%
    21:00 +15°C° 0.1 mm 2 mps 685 mmHg 90%
    22:00 +14°C° 0.1 mm 2 mps 685 mmHg 93%
    23:00 +13°C° 0 mm 2 mps 685 mmHg 94%

    23 July, Monday

    Time Temperature Precipitation Wind Pressure Humidity
    00:00 +13°C° 0 mm 2 mps 685 mmHg 94%
    01:00 +12°C° 0 mm 2 mps 685 mmHg 94%
    02:00 +12°C° 0 mm 2 mps 685 mmHg 94%
    03:00 +12°C° 0 mm 2 mps 685 mmHg 94%
    04:00 +12°C° 0 mm 2 mps 685 mmHg 94%
    05:00 +13°C° 0 mm 2 mps 685 mmHg 91%
    06:00 +14°C° 0 mm 2 mps 685 mmHg 88%
    07:00 +15°C° 0 mm 2 mps 685 mmHg 85%
    08:00 +17°C° 0 mm 2 mps 686 mmHg 76%
    09:00 +18°C° 0 mm 2 mps 686 mmHg 68%
    10:00 +20°C° 0 mm 2 mps 686 mmHg 59%
    11:00 +21°C° 0 mm 2 mps 686 mmHg 57%
    12:00 +23°C° 0 mm 2 mps 685 mmHg 56%
    13:00 +24°C° 0 mm 3 mps 685 mmHg 54%
    14:00 +24°C° 0 mm 3 mps 685 mmHg 56%
    15:00 +24°C° 0 mm 3 mps 685 mmHg 58%
    16:00 +22°C° 0 mm 3 mps 685 mmHg 60%
    17:00 +23°C° 0 mm 2 mps 685 mmHg 66%
    18:00 +21°C° 0 mm 2 mps 685 mmHg 73%
    19:00 +20°C° 0 mm 2 mps 685 mmHg 79%
    20:00 +19°C° 0 mm 1 mps 685 mmHg 85%
    21:00 +16°C° 0 mm 1 mps 685 mmHg 90%
    22:00 +14°C° 0 mm 1 mps 685 mmHg 96%
    23:00 +14°C° 0 mm 1 mps 684 mmHg 95%
    Show more